Change the Weather History Date:

Monday, January 9, 2012

  Actual Average Record
Temperature  
Mean Temperature 74 °F -  
Max Temperature 78 °F 78 °F 88 °F (1957)
Min Temperature 71 °F 58 °F 29 °F (1956)
Cooling Degree Days 10    
Growing Degree Days 24 (Base 50)    
Moisture  
Dew Point 61 °F    
Average Humidity 66    
Maximum Humidity 73    
Minimum Humidity 56    
Precipitation  
Precipitation 0.00 in - - ()
Sea Level Pressure  
Sea Level Pressure 30.15 in    
Wind  
Wind Speed 10 mph (ESE)    
Max Wind Speed 14 mph    
Max Gust Speed 16 mph    
Visibility 10 miles    
Events Rain    
Averages and records for this station are not official NWS values.
T = Trace of Precipitation, MM = Missing Value Source: NWS Daily Summary

Daily Weather History Graph

Daily Weather History Graph

Search for Another Location

Airport or City:

Trip Planner

Search our weather history database for the weather conditions in past years. The results will help you decide how hot, cold, wet, or windy it might be!

Date:

Astronomy

Jan. 09, 2012 Rise Set
Actual Time 7:09 AM EST 5:45 PM EST
Civil Twilight 6:44 AM EST 6:10 PM EST
Nautical Twilight 6:15 AM EST 6:39 PM EST
Astronomical Twilight 5:47 AM EST 7:07 PM EST
Moon 6:23 PM EST (1/9) 7:13 AM EST (1/9)
Length of Visible Light 11h 26m
Length of Day
10h 35m
Full, 100% of the Moon is Illuminated
Jan 9
Full
Jan 16
Last Quarter
Jan 23
New
Jan 30
First Quarter
Feb 7
Full

Hourly Weather History & Observations

Time (EST) Temp. Dew Point Humidity Pressure Visibility Wind Dir Wind Speed Gust Speed Precip Events Conditions
12:53 AM 72.0 °F 60.1 °F 66% 30.19 in 10.0 mi East 11.5 mph - N/A   Scattered Clouds
1:53 AM 72.0 °F 61.0 °F 68% 30.17 in 10.0 mi East 13.8 mph - N/A   Mostly Cloudy
2:53 AM 72.0 °F 62.1 °F 71% 30.15 in 10.0 mi East 13.8 mph - 0.00 in   Mostly Cloudy
3:53 AM 72.0 °F 62.1 °F 71% 30.14 in 10.0 mi East 12.7 mph - N/A   Mostly Cloudy
4:03 AM 71.6 °F 62.6 °F 73% 30.13 in 10.0 mi East 6.9 mph - N/A   Mostly Cloudy
4:16 AM 71.6 °F 62.6 °F 73% 30.14 in 10.0 mi East 10.4 mph - N/A   Mostly Cloudy
4:53 AM 71.1 °F 60.1 °F 68% 30.16 in 10.0 mi East 3.5 mph - N/A   Clear
5:53 AM 72.0 °F 62.1 °F 71% 30.16 in 10.0 mi East 9.2 mph - N/A   Mostly Cloudy
6:53 AM 73.0 °F 61.0 °F 66% 30.17 in 10.0 mi East 10.4 mph - N/A   Scattered Clouds
7:53 AM 72.0 °F 61.0 °F 68% 30.18 in 10.0 mi ESE 6.9 mph - N/A   Scattered Clouds
8:53 AM 75.9 °F 61.0 °F 60% 30.20 in 10.0 mi ESE 11.5 mph - N/A   Mostly Cloudy
9:53 AM 75.9 °F 62.1 °F 62% 30.22 in 10.0 mi ESE 12.7 mph - N/A   Overcast
11:53 AM 73.9 °F 64.9 °F 73% 30.19 in 10.0 mi SE 8.1 mph - 0.00 in Rain Light Rain
12:53 PM 78.1 °F 63.0 °F 60% 30.16 in 10.0 mi SE 11.5 mph - 0.00 in   Scattered Clouds
1:53 PM 77.0 °F 60.1 °F 56% 30.14 in 10.0 mi SSE 11.5 mph - N/A   Scattered Clouds
2:53 PM 77.0 °F 60.1 °F 56% 30.13 in 10.0 mi SE 9.2 mph 16.1 mph N/A   Scattered Clouds
3:53 PM 75.9 °F 61.0 °F 60% 30.13 in 10.0 mi SE 8.1 mph - N/A   Scattered Clouds
4:53 PM 75.0 °F 60.1 °F 60% 30.13 in 10.0 mi ESE 8.1 mph - N/A   Partly Cloudy
5:53 PM 73.0 °F 61.0 °F 66% 30.13 in 10.0 mi ESE 6.9 mph - N/A   Scattered Clouds
7:53 PM 72.0 °F 60.1 °F 66% 30.13 in 10.0 mi East 6.9 mph - N/A   Clear
8:53 PM 71.1 °F 60.1 °F 68% 30.13 in 10.0 mi ESE 4.6 mph - N/A   Clear
9:53 PM 71.1 °F 61.0 °F 70% 30.14 in 10.0 mi East 6.9 mph - N/A   Partly Cloudy
10:53 PM 71.1 °F 61.0 °F 70% 30.13 in 10.0 mi East 4.6 mph - N/A   Partly Cloudy
11:53 PM 71.1 °F 60.1 °F 68% 30.12 in 10.0 mi East 4.6 mph - N/A   Scattered Clouds